Location: Byszew
(52.1813°N, 19.2693°E)
Time: 19:01:15
(UTC+00:00)

Cosmos 1500 - Pass Details

Date: 03 March 2021
Orbit: 499 x 517 km, 82.5° (Epoch: 17 April)

Event Time Altitude Azimuth Distance (km) Brightness Sun altitude
Rises 17:13:42 0° 163° (SSE) 2,582 6.6 -8.1°
Reaches altitude 10° 17:15:59 10° 152° (SSE) 1,703 5.6 -8.4°
Maximum altitude 17:19:14 29° 91° (E) 936 3.9 -8.9°
Drops below altitude 10° 17:22:32 10° 30° (NNE) 1,718 5.6 -9.4°
Sets 17:24:50 0° 19° (NNE) 2,609 6.6 -9.8°
